Time,TemperatureF,DewpointF,PressureIn,WindDirection,WindDirectionDegrees,WindSpeedMPH,WindSpeedGustMPH,Humidity,HourlyPrecipIn,Conditions,Clouds,dailyrainin,SolarRadiationWatts/m^2,SoftwareType,DateUTC
2013-08-05 00:00:00,83.0,68.6,29.90,SE,137,3.0,3.0,62,0.00,,,0.00,0,Wunderground v.1.15,2013-08-05 05:00:00,
2013-08-05 00:10:00,82.8,68.4,29.90,SE,143,3.0,3.0,62,0.00,,,0.00,0,Wunderground v.1.15,2013-08-05 05:10:00,
2013-08-05 00:15:00,82.7,68.4,29.90,SE,139,2.0,6.0,62,0.00,,,0.00,0,Wunderground v.1.15,2013-08-05 05:15:00,
2013-08-05 00:20:00,82.5,68.6,29.90,SE,136,1.0,1.0,63,0.00,,,0.00,0,Wunderground v.1.15,2013-08-05 05:20:00,
2013-08-05 00:25:00,82.4,68.5,29.90,SE,136,0.0,1.0,63,0.00,,,0.00,0,Wunderground v.1.15,2013-08-05 05:25:00,
2013-08-05 00:30:00,82.2,68.8,29.90,SE,140,2.0,2.0,64,0.00,,,0.00,0,Wunderground v.1.15,2013-08-05 05:30:00,
2013-08-05 00:35:00,82.1,68.7,29.90,SE,126,2.0,2.0,64,0.00,,,0.00,0,Wunderground v.1.15,2013-08-05 05:35:00,
2013-08-05 00:40:00,82.0,69.1,29.90,SSE,150,1.0,10.0,65,0.00,,,0.00,0,Wunderground v.1.15,2013-08-05 05:40:00,
2013-08-05 00:45:00,81.8,69.3,29.90,SSE,147,3.0,10.0,66,0.00,,,0.00,0,Wunderground v.1.15,2013-08-05 05:45:00,
2013-08-05 00:55:00,81.6,69.6,29.90,SE,143,2.0,4.0,67,0.00,,,0.00,0,Wunderground v.1.15,2013-08-05 05:55:00,
2013-08-05 01:00:00,81.5,69.9,29.90,SE,134,1.0,1.0,68,0.00,,,0.00,0,Wunderground v.1.15,2013-08-05 06:00:00,
2013-08-05 01:05:00,81.4,70.2,29.90,SE,138,1.0,1.0,69,0.00,,,0.00,0,Wunderground v.1.15,2013-08-05 06:05:00,
2013-08-05 01:15:00,81.1,70.8,29.90,SE,132,1.0,2.0,71,0.00,,,0.00,0,Wunderground v.1.15,2013-08-05 06:15:00,
2013-08-05 01:25:00,80.9,71.0,29.90,SSE,163,1.0,3.0,72,0.00,,,0.00,0,Wunderground v.1.15,2013-08-05 06:25:00,
2013-08-05 01:30:00,80.7,70.8,29.91,SE,146,2.0,2.0,72,0.00,,,0.00,0,Wunderground v.1.15,2013-08-05 06:30:00,
2013-08-05 01:35:00,80.6,71.1,29.91,SE,140,1.0,5.0,73,0.00,,,0.00,0,Wunderground v.1.15,2013-08-05 06:35:00,
2013-08-05 01:40:00,80.5,71.0,29.91,SE,141,1.0,1.0,73,0.00,,,0.00,0,Wunderground v.1.15,2013-08-05 06:40:00,
2013-08-05 01:45:00,80.4,71.3,29.91,SE,139,1.0,1.0,74,0.00,,,0.00,0,Wunderground v.1.15,2013-08-05 06:45:00,
2013-08-05 01:50:00,80.3,71.3,29.91,SE,138,0.0,3.0,74,0.00,,,0.00,0,Wunderground v.1.15,2013-08-05 06:50:00,
2013-08-05 01:55:00,80.2,71.2,29.91,SE,138,1.0,3.0,74,0.00,,,0.00,0,Wunderground v.1.15,2013-08-05 06:55:00,
2013-08-05 02:00:00,80.0,71.4,29.90,SE,138,1.0,1.0,75,0.00,,,0.00,0,Wunderground v.1.15,2013-08-05 07:00:00,
2013-08-05 02:05:00,79.9,71.3,29.90,SE,130,1.0,1.0,75,0.00,,,0.00,0,Wunderground v.1.15,2013-08-05 07:05:00,
2013-08-05 02:10:00,79.8,71.6,29.90,SE,132,1.0,1.0,76,0.00,,,0.00,0,Wunderground v.1.15,2013-08-05 07:10:00,
2013-08-05 02:15:00,79.7,71.5,29.90,SE,132,0.0,1.0,76,0.00,,,0.00,0,Wunderground v.1.15,2013-08-05 07:15:00,
2013-08-05 02:19:00,79.6,71.4,29.90,SE,132,1.0,1.0,76,0.00,,,0.00,0,Wunderground v.1.15,2013-08-05 07:19:00,
2013-08-05 02:25:00,79.5,71.7,29.90,SE,132,1.0,5.0,77,0.00,,,0.00,0,Wunderground v.1.15,2013-08-05 07:25:00,
2013-08-05 02:30:00,79.3,71.8,29.90,SE,132,1.0,1.0,78,0.00,,,0.00,0,Wunderground v.1.15,2013-08-05 07:30:00,
2013-08-05 02:35:00,79.2,71.7,29.90,SE,130,0.0,1.0,78,0.00,,,0.00,0,Wunderground v.1.15,2013-08-05 07:35:00,
2013-08-05 02:40:00,79.1,71.6,29.90,SE,130,0.0,0.0,78,0.00,,,0.00,0,Wunderground v.1.15,2013-08-05 07:40:00,
2013-08-05 02:45:00,78.9,71.5,29.90,SE,130,0.0,0.0,78,0.00,,,0.00,0,Wunderground v.1.15,2013-08-05 07:45:00,
2013-08-05 02:54:00,78.7,71.6,29.90,SE,130,0.0,0.0,79,0.00,,,0.00,0,Wunderground v.1.15,2013-08-05 07:54:00,
2013-08-05 03:00:00,78.7,71.6,29.90,SE,131,0.0,0.0,79,0.00,,,0.00,0,Wunderground v.1.15,2013-08-05 08:00:00,
2013-08-05 03:05:00,78.6,71.9,29.90,SE,131,1.0,1.0,80,0.00,,,0.00,0,Wunderground v.1.15,2013-08-05 08:05:00,
2013-08-05 03:09:00,78.5,71.8,29.90,SE,132,1.0,1.0,80,0.00,,,0.00,0,Wunderground v.1.15,2013-08-05 08:09:00,
2013-08-05 03:15:00,78.3,72.0,29.90,SE,135,1.0,3.0,81,0.00,,,0.00,0,Wunderground v.1.15,2013-08-05 08:15:00,
2013-08-05 03:20:00,78.2,71.9,29.90,SE,137,2.0,2.0,81,0.00,,,0.00,0,Wunderground v.1.15,2013-08-05 08:20:00,
2013-08-05 03:25:00,78.2,71.9,29.90,SE,138,1.0,2.0,81,0.00,,,0.00,0,Wunderground v.1.15,2013-08-05 08:25:00,
2013-08-05 03:30:00,78.1,72.2,29.90,SE,138,1.0,1.0,82,0.00,,,0.00,0,Wunderground v.1.15,2013-08-05 08:30:00,
2013-08-05 03:35:00,78.0,72.1,29.90,SE,138,1.0,1.0,82,0.00,,,0.00,0,Wunderground v.1.15,2013-08-05 08:35:00,
2013-08-05 03:40:00,77.9,72.0,29.90,SE,140,1.0,1.0,82,0.00,,,0.00,0,Wunderground v.1.15,2013-08-05 08:40:00,
2013-08-05 03:50:00,77.9,72.3,29.90,SSE,151,2.0,2.0,83,0.00,,,0.00,0,Wunderground v.1.15,2013-08-05 08:50:00,
2013-08-05 03:55:00,77.8,72.2,29.90,SSE,150,1.0,2.0,83,0.00,,,0.00,0,Wunderground v.1.15,2013-08-05 08:55:00,
2013-08-05 04:00:00,77.7,72.5,29.91,SSE,152,0.0,0.0,84,0.00,,,0.00,0,Wunderground v.1.15,2013-08-05 09:00:00,
2013-08-05 04:05:00,77.7,72.5,29.91,SSE,153,1.0,1.0,84,0.00,,,0.00,0,Wunderground v.1.15,2013-08-05 09:05:00,
2013-08-05 04:10:00,77.6,72.4,29.91,SSE,153,0.0,0.0,84,0.00,,,0.00,0,Wunderground v.1.15,2013-08-05 09:10:00,
2013-08-05 04:15:00,77.5,72.6,29.91,SSE,153,0.0,0.0,85,0.00,,,0.00,0,Wunderground v.1.15,2013-08-05 09:15:00,
2013-08-05 04:20:00,77.4,72.5,29.91,SSE,153,0.0,0.0,85,0.00,,,0.00,0,Wunderground v.1.15,2013-08-05 09:20:00,
2013-08-05 04:25:00,77.3,72.4,29.91,SSE,153,0.0,0.0,85,0.00,,,0.00,0,Wunderground v.1.15,2013-08-05 09:25:00,
2013-08-05 04:40:00,76.9,72.4,29.91,SSE,153,0.0,0.0,86,0.00,,,0.00,0,Wunderground v.1.15,2013-08-05 09:40:00,
2013-08-05 04:45:00,76.8,72.3,29.91,SSE,153,0.0,0.0,86,0.00,,,0.00,0,Wunderground v.1.15,2013-08-05 09:45:00,
2013-08-05 04:50:00,76.7,72.2,29.91,SSE,153,0.0,0.0,86,0.00,,,0.00,0,Wunderground v.1.15,2013-08-05 09:50:00,
2013-08-05 05:00:00,76.6,72.4,29.91,SSE,153,0.0,0.0,87,0.00,,,0.00,0,Wunderground v.1.15,2013-08-05 10:00:00,
2013-08-05 05:10:00,76.5,72.7,29.91,SSE,153,0.0,0.0,88,0.00,,,0.00,0,Wunderground v.1.15,2013-08-05 10:10:00,
2013-08-05 05:15:00,76.5,72.7,29.91,SSE,153,0.0,0.0,88,0.00,,,0.00,0,Wunderground v.1.15,2013-08-05 10:15:00,
2013-08-05 05:25:00,76.6,73.1,29.91,SSE,158,1.0,1.0,89,0.00,,,0.00,0,Wunderground v.1.15,2013-08-05 10:25:00,
2013-08-05 05:30:00,76.6,73.1,29.90,SSE,158,1.0,1.0,89,0.00,,,0.00,0,Wunderground v.1.15,2013-08-05 10:30:00,
2013-08-05 05:35:00,76.6,73.4,29.90,SSE,157,0.0,1.0,90,0.00,,,0.00,0,Wunderground v.1.15,2013-08-05 10:35:00,
2013-08-05 05:40:00,76.6,73.4,29.90,SSE,159,0.0,0.0,90,0.00,,,0.00,0,Wunderground v.1.15,2013-08-05 10:40:00,
2013-08-05 05:45:00,76.7,73.5,29.91,SSE,159,0.0,0.0,90,0.00,,,0.00,0,Wunderground v.1.15,2013-08-05 10:45:00,
2013-08-05 05:55:00,76.7,73.5,29.91,SSE,159,0.0,0.0,90,0.00,,,0.00,0,Wunderground v.1.15,2013-08-05 10:55:00,
2013-08-05 06:00:00,76.6,73.4,29.91,SSE,159,0.0,0.0,90,0.00,,,0.00,0,Wunderground v.1.15,2013-08-05 11:00:00,
2013-08-05 06:05:00,76.6,73.4,29.91,SSE,159,0.0,0.0,90,0.00,,,0.00,0,Wunderground v.1.15,2013-08-05 11:05:00,
2013-08-05 06:10:00,76.6,73.4,29.91,SSE,159,0.0,0.0,90,0.00,,,0.00,0,Wunderground v.1.15,2013-08-05 11:10:00,
2013-08-05 06:15:00,76.7,73.5,29.91,SSE,158,0.0,0.0,90,0.00,,,0.00,0,Wunderground v.1.15,2013-08-05 11:15:00,
2013-08-05 06:25:00,76.8,73.6,29.91,SSE,158,0.0,0.0,90,0.00,,,0.00,0,Wunderground v.1.15,2013-08-05 11:25:00,
2013-08-05 06:29:00,76.8,74.0,29.91,SSE,158,0.0,0.0,91,0.00,,,0.00,0,Wunderground v.1.15,2013-08-05 11:29:00,
2013-08-05 06:35:00,76.8,74.0,29.91,SSE,159,0.0,0.0,91,0.00,,,0.00,0,Wunderground v.1.15,2013-08-05 11:35:00,
2013-08-05 06:40:00,76.9,74.1,29.91,SSE,157,1.0,1.0,91,0.00,,,0.00,0,Wunderground v.1.15,2013-08-05 11:40:00,
2013-08-05 06:45:00,76.9,74.1,29.91,SSE,159,1.0,1.0,91,0.00,,,0.00,0,Wunderground v.1.15,2013-08-05 11:45:00,
2013-08-05 06:50:00,76.9,74.1,29.91,SSE,157,0.0,0.0,91,0.00,,,0.00,0,Wunderground v.1.15,2013-08-05 11:50:00,
2013-08-05 06:55:00,76.9,74.1,29.91,SSE,157,0.0,0.0,91,0.00,,,0.00,0,Wunderground v.1.15,2013-08-05 11:55:00,
2013-08-05 07:00:00,76.8,74.0,29.91,SSE,157,0.0,0.0,91,0.00,,,0.00,0,Wunderground v.1.15,2013-08-05 12:00:00,
2013-08-05 07:04:00,76.8,74.0,29.91,SSE,157,0.0,0.0,91,0.00,,,0.00,5,Wunderground v.1.15,2013-08-05 12:04:00,
2013-08-05 07:10:00,76.9,74.1,29.91,SSE,157,0.0,0.0,91,0.00,,,0.00,9,Wunderground v.1.15,2013-08-05 12:10:00,
2013-08-05 07:20:00,77.0,74.2,29.91,SSE,156,1.0,1.0,91,0.00,,,0.00,19,Wunderground v.1.15,2013-08-05 12:20:00,
2013-08-05 07:30:00,77.0,74.2,29.92,SSE,155,1.0,1.0,91,0.00,,,0.00,32,Wunderground v.1.15,2013-08-05 12:30:00,
2013-08-05 07:35:00,77.1,74.3,29.92,SSE,155,0.0,1.0,91,0.00,,,0.00,37,Wunderground v.1.15,2013-08-05 12:35:00,
2013-08-05 07:40:00,77.1,74.3,29.92,ENE,61,0.0,0.0,91,0.00,,,0.00,47,Wunderground v.1.15,2013-08-05 12:40:00,
2013-08-05 07:45:00,77.2,74.4,29.92,SE,124,0.0,0.0,91,0.00,,,0.00,56,Wunderground v.1.15,2013-08-05 12:45:00,
2013-08-05 07:50:00,77.3,74.5,29.92,SSE,150,0.0,1.0,91,0.00,,,0.00,53,Wunderground v.1.15,2013-08-05 12:50:00,
2013-08-05 07:55:00,77.4,74.6,29.92,SSE,150,1.0,7.0,91,0.00,,,0.00,67,Wunderground v.1.15,2013-08-05 12:55:00,
2013-08-05 08:00:00,77.5,74.7,29.93,South,180,4.0,5.0,91,0.00,,,0.00,62,Wunderground v.1.15,2013-08-05 13:00:00,
2013-08-05 08:05:00,77.6,74.8,29.93,South,186,4.0,5.0,91,0.00,,,0.00,109,Wunderground v.1.15,2013-08-05 13:05:00,
2013-08-05 08:10:00,77.7,74.9,29.93,South,170,5.0,5.0,91,0.00,,,0.00,86,Wunderground v.1.15,2013-08-05 13:10:00,
2013-08-05 08:15:00,77.9,75.1,29.93,SSE,161,5.0,7.0,91,0.00,,,0.00,79,Wunderground v.1.15,2013-08-05 13:15:00,
2013-08-05 08:25:00,78.3,75.1,29.93,SSE,159,5.0,5.0,90,0.00,,,0.00,104,Wunderground v.1.15,2013-08-05 13:25:00,
2013-08-05 08:30:00,78.5,75.3,29.93,South,182,4.0,10.0,90,0.00,,,0.00,125,Wunderground v.1.15,2013-08-05 13:30:00,
2013-08-05 08:35:00,78.7,75.5,29.93,SSE,157,3.0,10.0,90,0.00,,,0.00,120,Wunderground v.1.15,2013-08-05 13:35:00,
2013-08-05 08:40:00,78.9,75.7,29.93,South,190,3.0,5.0,90,0.00,,,0.00,272,Wunderground v.1.15,2013-08-05 13:40:00,
2013-08-05 08:45:00,79.7,75.8,29.93,SSE,153,2.0,5.0,88,0.00,,,0.00,169,Wunderground v.1.15,2013-08-05 13:45:00,
2013-08-05 08:55:00,80.1,75.5,29.93,South,178,4.0,10.0,86,0.00,,,0.00,146,Wunderground v.1.15,2013-08-05 13:55:00,
2013-08-05 09:00:00,80.2,75.6,29.93,South,187,5.0,9.0,86,0.00,,,0.00,183,Wunderground v.1.15,2013-08-05 14:00:00,
2013-08-05 09:15:00,80.7,75.8,29.93,SSW,198,5.0,8.0,85,0.00,,,0.00,174,Wunderground v.1.15,2013-08-05 14:15:00,
2013-08-05 09:20:00,81.3,75.6,29.93,SW,224,4.0,12.0,83,0.00,,,0.00,323,Wunderground v.1.15,2013-08-05 14:20:00,
2013-08-05 09:25:00,81.7,75.7,29.93,SSW,201,8.0,12.0,82,0.00,,,0.00,462,Wunderground v.1.15,2013-08-05 14:25:00,
2013-08-05 09:35:00,82.5,76.1,29.93,SSW,196,3.0,8.0,81,0.00,,,0.00,517,Wunderground v.1.15,2013-08-05 14:35:00,
2013-08-05 09:40:00,83.5,76.3,29.93,South,188,2.0,2.0,79,0.00,,,0.00,550,Wunderground v.1.15,2013-08-05 14:40:00,
2013-08-05 09:45:00,84.5,76.9,29.93,SSW,198,4.0,9.0,78,0.00,,,0.00,533,Wunderground v.1.15,2013-08-05 14:45:00,
2013-08-05 09:50:00,84.9,76.1,29.93,South,188,5.0,10.0,75,0.00,,,0.00,130,Wunderground v.1.15,2013-08-05 14:50:00,
2013-08-05 09:55:00,85.1,76.3,29.93,South,172,6.0,10.0,75,0.00,,,0.00,571,Wunderground v.1.15,2013-08-05 14:55:00,
2013-08-05 09:59:00,85.3,76.5,29.92,South,169,3.0,3.0,75,0.00,,,0.00,601,Wunderground v.1.15,2013-08-05 14:59:00,
2013-08-05 10:05:00,85.4,76.2,29.92,South,189,3.0,3.0,74,0.00,,,0.00,552,Wunderground v.1.15,2013-08-05 15:05:00,
2013-08-05 10:10:00,86.0,76.3,29.92,SSW,205,4.0,12.0,73,0.00,,,0.00,589,Wunderground v.1.15,2013-08-05 15:10:00,
2013-08-05 10:20:00,86.9,76.4,29.92,South,175,3.0,3.0,71,0.00,,,0.00,643,Wunderground v.1.15,2013-08-05 15:20:00,
2013-08-05 10:25:00,87.0,76.0,29.92,South,180,4.0,10.0,70,0.00,,,0.00,645,Wunderground v.1.15,2013-08-05 15:25:00,
2013-08-05 10:30:00,87.5,76.1,29.92,SSW,198,7.0,8.0,69,0.00,,,0.00,670,Wunderground v.1.15,2013-08-05 15:30:00,
2013-08-05 10:40:00,88.6,76.2,29.92,SSW,205,5.0,5.0,67,0.00,,,0.00,671,Wunderground v.1.15,2013-08-05 15:40:00,
2013-08-05 10:45:00,89.1,75.8,29.91,SSW,213,5.0,8.0,65,0.00,,,0.00,686,Wunderground v.1.15,2013-08-05 15:45:00,
2013-08-05 10:55:00,89.4,76.5,29.91,SSE,156,6.0,11.0,66,0.00,,,0.00,719,Wunderground v.1.15,2013-08-05 15:55:00,
2013-08-05 11:00:00,90.0,76.6,29.91,SSW,210,7.0,8.0,65,0.00,,,0.00,761,Wunderground v.1.15,2013-08-05 16:00:00,
2013-08-05 11:04:00,89.6,75.8,29.91,SSW,203,7.0,8.0,64,0.00,,,0.00,744,Wunderground v.1.15,2013-08-05 16:04:00,
2013-08-05 11:10:00,90.8,76.5,29.91,SSW,211,6.0,7.0,63,0.00,,,0.00,751,Wunderground v.1.15,2013-08-05 16:10:00,
2013-08-05 11:15:00,91.0,76.7,29.91,South,190,7.0,7.0,63,0.00,,,0.00,766,Wunderground v.1.15,2013-08-05 16:15:00,
2013-08-05 11:25:00,91.3,75.5,29.91,SSW,211,7.0,7.0,60,0.00,,,0.00,786,Wunderground v.1.15,2013-08-05 16:25:00,
2013-08-05 11:30:00,91.8,76.4,29.91,SSW,206,6.0,11.0,61,0.00,,,0.00,793,Wunderground v.1.15,2013-08-05 16:30:00,
2013-08-05 11:35:00,92.1,76.2,29.91,SSW,205,6.0,11.0,60,0.00,,,0.00,810,Wunderground v.1.15,2013-08-05 16:35:00,
2013-08-05 11:40:00,92.6,75.7,29.91,South,184,7.0,12.0,58,0.00,,,0.00,817,Wunderground v.1.15,2013-08-05 16:40:00,
2013-08-05 11:45:00,92.9,75.4,29.90,SSW,199,7.0,12.0,57,0.00,,,0.00,823,Wunderground v.1.15,2013-08-05 16:45:00,
2013-08-05 11:55:00,93.2,75.2,29.90,South,188,5.0,13.0,56,0.00,,,0.00,846,Wunderground v.1.15,2013-08-05 16:55:00,
2013-08-05 12:00:00,93.5,76.0,29.90,SSW,202,5.0,10.0,57,0.00,,,0.00,858,Wunderground v.1.15,2013-08-05 17:00:00,
2013-08-05 12:05:00,93.7,76.2,29.90,South,173,7.0,10.0,57,0.00,,,0.00,875,Wunderground v.1.15,2013-08-05 17:05:00,
2013-08-05 12:15:00,93.9,75.3,29.89,South,184,7.0,7.0,55,0.00,,,0.00,879,Wunderground v.1.15,2013-08-05 17:15:00,
2013-08-05 12:20:00,94.2,75.0,29.89,SW,217,7.0,7.0,54,0.00,,,0.00,891,Wunderground v.1.15,2013-08-05 17:20:00,
2013-08-05 12:25:00,94.5,74.7,29.89,SW,214,6.0,11.0,53,0.00,,,0.00,937,Wunderground v.1.15,2013-08-05 17:25:00,
2013-08-05 12:30:00,94.8,73.8,29.88,SSW,200,8.0,8.0,51,0.00,,,0.00,898,Wunderground v.1.15,2013-08-05 17:30:00,
2013-08-05 12:35:00,94.8,74.4,29.88,SW,222,8.0,9.0,52,0.00,,,0.00,902,Wunderground v.1.15,2013-08-05 17:35:00,
2013-08-05 12:40:00,95.1,74.7,29.88,SSW,194,7.0,7.0,52,0.00,,,0.00,928,Wunderground v.1.15,2013-08-05 17:40:00,
2013-08-05 12:45:00,95.8,76.5,29.88,SSW,212,7.0,9.0,54,0.00,,,0.00,942,Wunderground v.1.15,2013-08-05 17:45:00,
2013-08-05 12:50:00,96.5,75.4,29.88,South,190,6.0,6.0,51,0.00,,,0.00,946,Wunderground v.1.15,2013-08-05 17:50:00,
2013-08-05 13:00:00,96.2,73.9,29.87,SW,232,6.0,6.0,49,0.00,,,0.00,940,Wunderground v.1.15,2013-08-05 18:00:00,
2013-08-05 13:05:00,95.7,74.7,29.87,SSW,207,5.0,6.0,51,0.00,,,0.00,970,Wunderground v.1.15,2013-08-05 18:05:00,
2013-08-05 13:10:00,96.8,75.1,29.87,SSW,209,4.0,13.0,50,0.00,,,0.00,1011,Wunderground v.1.15,2013-08-05 18:10:00,
2013-08-05 13:15:00,96.6,74.3,29.86,SSW,213,7.0,13.0,49,0.00,,,0.00,962,Wunderground v.1.15,2013-08-05 18:15:00,
2013-08-05 13:20:00,96.9,74.6,29.86,South,169,7.0,7.0,49,0.00,,,0.00,995,Wunderground v.1.15,2013-08-05 18:20:00,
2013-08-05 13:30:00,95.6,74.0,29.86,SSE,150,3.0,7.0,50,0.00,,,0.00,937,Wunderground v.1.15,2013-08-05 18:30:00,
2013-08-05 13:45:00,97.4,73.8,29.85,SW,215,5.0,11.0,47,0.00,,,0.00,916,Wunderground v.1.15,2013-08-05 18:45:00,
2013-08-05 13:50:00,97.9,75.5,29.85,South,187,5.0,6.0,49,0.00,,,0.00,918,Wunderground v.1.15,2013-08-05 18:50:00,
2013-08-05 13:55:00,98.1,74.4,29.85,SE,124,4.0,6.0,47,0.00,,,0.00,935,Wunderground v.1.15,2013-08-05 18:55:00,
2013-08-05 14:00:00,97.7,73.4,29.84,SSE,165,4.0,4.0,46,0.00,,,0.00,916,Wunderground v.1.15,2013-08-05 19:00:00,
2013-08-05 14:05:00,97.5,73.2,29.84,South,172,4.0,4.0,46,0.00,,,0.00,946,Wunderground v.1.15,2013-08-05 19:05:00,
2013-08-05 14:10:00,97.3,73.1,29.84,SE,132,4.0,7.0,46,0.00,,,0.00,937,Wunderground v.1.15,2013-08-05 19:10:00,
2013-08-05 14:15:00,97.3,73.7,29.84,SSW,192,4.0,7.0,47,0.00,,,0.00,969,Wunderground v.1.15,2013-08-05 19:15:00,
2013-08-05 14:20:00,98.4,73.4,29.84,SSE,150,6.0,6.0,45,0.00,,,0.00,914,Wunderground v.1.15,2013-08-05 19:20:00,
2013-08-05 14:25:00,98.3,72.6,29.84,South,172,6.0,6.0,44,0.00,,,0.00,898,Wunderground v.1.15,2013-08-05 19:25:00,
2013-08-05 14:35:00,98.7,73.7,29.83,SSW,200,5.0,7.0,45,0.00,,,0.00,919,Wunderground v.1.15,2013-08-05 19:35:00,
2013-08-05 14:40:00,98.5,73.5,29.83,SE,133,6.0,6.0,45,0.00,,,0.00,919,Wunderground v.1.15,2013-08-05 19:40:00,
2013-08-05 14:45:00,98.5,72.8,29.83,SE,125,5.0,12.0,44,0.00,,,0.00,895,Wunderground v.1.15,2013-08-05 19:45:00,
2013-08-05 14:50:00,97.4,72.5,29.83,SSE,166,3.0,3.0,45,0.00,,,0.00,160,Wunderground v.1.15,2013-08-05 19:50:00,
2013-08-05 14:55:00,97.8,74.2,29.83,South,172,2.0,7.0,47,0.00,,,0.00,889,Wunderground v.1.15,2013-08-05 19:55:00,
2013-08-05 15:00:00,99.6,71.0,29.82,SE,136,5.0,10.0,40,0.00,,,0.00,875,Wunderground v.1.15,2013-08-05 20:00:00,
2013-08-05 15:05:00,99.1,71.3,29.82,SSE,152,5.0,10.0,41,0.00,,,0.00,865,Wunderground v.1.15,2013-08-05 20:05:00,
2013-08-05 15:10:00,99.1,72.0,29.82,SSE,158,2.0,6.0,42,0.00,,,0.00,860,Wunderground v.1.15,2013-08-05 20:10:00,
2013-08-05 15:15:00,99.5,70.9,29.81,SE,130,4.0,6.0,40,0.00,,,0.00,865,Wunderground v.1.15,2013-08-05 20:15:00,
2013-08-05 15:20:00,99.7,71.8,29.81,South,175,4.0,6.0,41,0.00,,,0.00,861,Wunderground v.1.15,2013-08-05 20:20:00,
2013-08-05 15:25:00,100.9,72.1,29.81,South,190,3.0,6.0,40,0.00,,,0.00,838,Wunderground v.1.15,2013-08-05 20:25:00,
2013-08-05 15:30:00,101.2,70.9,29.81,South,176,6.0,7.0,38,0.00,,,0.00,824,Wunderground v.1.15,2013-08-05 20:30:00,
2013-08-05 15:35:00,100.3,70.9,29.81,SE,140,6.0,7.0,39,0.00,,,0.00,828,Wunderground v.1.15,2013-08-05 20:35:00,
2013-08-05 15:40:00,99.8,71.2,29.81,SSW,194,3.0,6.0,40,0.00,,,0.00,814,Wunderground v.1.15,2013-08-05 20:40:00,
2013-08-05 15:50:00,101.0,71.5,29.80,SSE,163,10.0,13.0,39,0.00,,,0.00,784,Wunderground v.1.15,2013-08-05 20:50:00,
2013-08-05 15:55:00,101.1,70.0,29.80,South,191,9.0,13.0,37,0.00,,,0.00,766,Wunderground v.1.15,2013-08-05 20:55:00,
2013-08-05 16:05:00,101.0,70.7,29.79,SSE,164,4.0,9.0,38,0.00,,,0.00,758,Wunderground v.1.15,2013-08-05 21:05:00,
2013-08-05 16:10:00,100.9,69.8,29.79,South,180,6.0,6.0,37,0.00,,,0.00,735,Wunderground v.1.15,2013-08-05 21:10:00,
2013-08-05 16:20:00,101.4,69.5,29.78,South,176,4.0,11.0,36,0.00,,,0.00,714,Wunderground v.1.15,2013-08-05 21:20:00,
2013-08-05 16:25:00,101.5,71.2,29.78,South,190,5.0,11.0,38,0.00,,,0.00,696,Wunderground v.1.15,2013-08-05 21:25:00,
2013-08-05 16:55:00,101.7,70.6,29.77,SSW,207,5.0,16.0,37,0.00,,,0.00,640,Wunderground v.1.15,2013-08-05 21:55:00,
2013-08-05 17:00:00,102.1,70.1,29.77,SSW,192,9.0,13.0,36,0.00,,,0.00,621,Wunderground v.1.15,2013-08-05 22:00:00,
2013-08-05 17:10:00,101.4,70.3,29.77,SE,145,4.0,6.0,37,0.00,,,0.00,585,Wunderground v.1.15,2013-08-05 22:10:00,
2013-08-05 17:15:00,101.4,69.5,29.77,SSE,154,5.0,6.0,36,0.00,,,0.00,573,Wunderground v.1.15,2013-08-05 22:15:00,
2013-08-05 17:20:00,101.2,70.1,29.77,SSE,150,6.0,6.0,37,0.00,,,0.00,575,Wunderground v.1.15,2013-08-05 22:20:00,
2013-08-05 17:25:00,100.9,69.8,29.77,South,180,3.0,6.0,37,0.00,,,0.00,603,Wunderground v.1.15,2013-08-05 22:25:00,
2013-08-05 17:35:00,100.9,69.0,29.76,SSE,155,5.0,5.0,36,0.00,,,0.00,555,Wunderground v.1.15,2013-08-05 22:35:00,
2013-08-05 17:40:00,101.4,70.3,29.76,SSE,167,4.0,4.0,37,0.00,,,0.00,527,Wunderground v.1.15,2013-08-05 22:40:00,
2013-08-05 17:50:00,101.0,69.9,29.76,SSE,153,5.0,10.0,37,0.00,,,0.00,503,Wunderground v.1.15,2013-08-05 22:50:00,
2013-08-05 17:55:00,100.5,70.3,29.76,South,172,5.0,10.0,38,0.00,,,0.00,468,Wunderground v.1.15,2013-08-05 22:55:00,
2013-08-05 18:00:00,100.6,70.4,29.75,ESE,115,4.0,6.0,38,0.00,,,0.00,478,Wunderground v.1.15,2013-08-05 23:00:00,
2013-08-05 18:05:00,100.0,71.3,29.75,ESE,113,4.0,6.0,40,0.00,,,0.00,439,Wunderground v.1.15,2013-08-05 23:05:00,
2013-08-05 18:10:00,99.7,69.6,29.75,SE,132,4.0,4.0,38,0.00,,,0.00,427,Wunderground v.1.15,2013-08-05 23:10:00,
2013-08-05 18:20:00,100.0,69.8,29.75,SSE,157,7.0,7.0,38,0.00,,,0.00,392,Wunderground v.1.15,2013-08-05 23:20:00,
2013-08-05 18:25:00,100.1,69.1,29.75,SSE,167,7.0,7.0,37,0.00,,,0.00,376,Wunderground v.1.15,2013-08-05 23:25:00,
2013-08-05 18:30:00,99.8,69.7,29.75,South,191,6.0,6.0,38,0.00,,,0.00,364,Wunderground v.1.15,2013-08-05 23:30:00,
2013-08-05 18:35:00,99.5,67.8,29.75,SE,130,7.0,7.0,36,0.00,,,0.00,334,Wunderground v.1.15,2013-08-05 23:35:00,
2013-08-05 18:45:00,98.5,67.7,29.75,ESE,114,6.0,9.0,37,0.00,,,0.00,283,Wunderground v.1.15,2013-08-05 23:45:00,
2013-08-05 18:50:00,98.4,67.6,29.75,ESE,123,5.0,7.0,37,0.00,,,0.00,211,Wunderground v.1.15,2013-08-05 23:50:00,
2013-08-05 19:00:00,98.7,67.1,29.75,SSE,156,7.0,9.0,36,0.00,,,0.00,234,Wunderground v.1.15,2013-08-06 00:00:00,
2013-08-05 19:10:00,98.7,69.4,29.75,ESE,117,4.0,6.0,39,0.00,,,0.00,188,Wunderground v.1.15,2013-08-06 00:10:00,
2013-08-05 19:20:00,97.6,70.6,29.75,SE,140,6.0,6.0,42,0.00,,,0.00,163,Wunderground v.1.15,2013-08-06 00:20:00,
2013-08-05 19:25:00,97.4,71.2,29.75,SE,138,6.0,7.0,43,0.00,,,0.00,148,Wunderground v.1.15,2013-08-06 00:25:00,
2013-08-05 19:30:00,97.2,71.0,29.75,SE,128,7.0,12.0,43,0.00,,,0.00,125,Wunderground v.1.15,2013-08-06 00:30:00,
2013-08-05 19:45:00,96.6,71.8,29.75,SE,124,7.0,7.0,45,0.00,,,0.00,33,Wunderground v.1.15,2013-08-06 00:45:00,
2013-08-05 19:50:00,96.2,72.1,29.75,SE,140,8.0,11.0,46,0.00,,,0.00,30,Wunderground v.1.15,2013-08-06 00:50:00,
2013-08-05 19:55:00,95.9,72.4,29.75,SE,135,8.0,11.0,47,0.00,,,0.00,25,Wunderground v.1.15,2013-08-06 00:55:00,
2013-08-05 20:05:00,95.2,73.6,29.75,SE,140,8.0,9.0,50,0.00,,,0.00,16,Wunderground v.1.15,2013-08-06 01:05:00,
2013-08-05 20:10:00,94.8,73.8,29.75,SSE,157,9.0,9.0,51,0.00,,,0.00,12,Wunderground v.1.15,2013-08-06 01:10:00,
2013-08-05 20:30:00,93.3,74.7,29.76,SE,126,6.0,9.0,55,0.00,,,0.00,0,Wunderground v.1.15,2013-08-06 01:30:00,
2013-08-05 20:35:00,92.9,74.9,29.76,SE,146,7.0,12.0,56,0.00,,,0.00,0,Wunderground v.1.15,2013-08-06 01:35:00,
2013-08-05 20:45:00,92.3,75.4,29.76,South,184,8.0,9.0,58,0.00,,,0.00,0,Wunderground v.1.15,2013-08-06 01:45:00,
2013-08-05 20:50:00,92.0,75.6,29.76,SE,140,8.0,8.0,59,0.00,,,0.00,0,Wunderground v.1.15,2013-08-06 01:50:00,
2013-08-05 20:55:00,91.7,75.3,29.76,SSE,165,8.0,8.0,59,0.00,,,0.00,0,Wunderground v.1.15,2013-08-06 01:55:00,
2013-08-05 21:00:00,91.5,75.7,29.77,SSE,155,6.0,6.0,60,0.00,,,0.00,0,Wunderground v.1.15,2013-08-06 02:00:00,
2013-08-05 21:10:00,90.7,75.4,29.77,SSE,158,8.0,8.0,61,0.00,,,0.00,0,Wunderground v.1.15,2013-08-06 02:10:00,
2013-08-05 21:20:00,90.1,75.3,29.77,SE,142,7.0,7.0,62,0.00,,,0.00,0,Wunderground v.1.15,2013-08-06 02:20:00,
2013-08-05 21:25:00,89.9,75.6,29.77,SSE,149,6.0,7.0,63,0.00,,,0.00,0,Wunderground v.1.15,2013-08-06 02:25:00,
2013-08-05 21:30:00,89.7,75.4,29.78,SSE,154,5.0,6.0,63,0.00,,,0.00,0,Wunderground v.1.15,2013-08-06 02:30:00,
2013-08-05 21:35:00,89.4,75.1,29.78,SSE,153,6.0,6.0,63,0.00,,,0.00,0,Wunderground v.1.15,2013-08-06 02:35:00,
2013-08-05 21:45:00,88.9,75.1,29.78,SE,142,5.0,6.0,64,0.00,,,0.00,0,Wunderground v.1.15,2013-08-06 02:45:00,
2013-08-05 21:50:00,88.6,74.9,29.78,SE,140,7.0,13.0,64,0.00,,,0.00,0,Wunderground v.1.15,2013-08-06 02:50:00,
2013-08-05 22:00:00,88.0,74.3,29.79,SE,140,10.0,10.0,64,0.00,,,0.00,0,Wunderground v.1.15,2013-08-06 03:00:00,
2013-08-05 22:05:00,87.7,74.0,29.79,SE,134,9.0,14.0,64,0.00,,,0.00,0,Wunderground v.1.15,2013-08-06 03:05:00,
2013-08-05 22:15:00,87.1,73.9,29.79,SE,134,6.0,7.0,65,0.00,,,0.00,0,Wunderground v.1.15,2013-08-06 03:15:00,
2013-08-05 22:20:00,86.9,73.7,29.79,SE,144,6.0,6.0,65,0.00,,,0.00,0,Wunderground v.1.15,2013-08-06 03:20:00,
2013-08-05 22:25:00,86.7,74.0,29.79,SE,138,7.0,8.0,66,0.00,,,0.00,0,Wunderground v.1.15,2013-08-06 03:25:00,
2013-08-05 22:30:00,86.4,73.7,29.80,SSE,155,7.0,7.0,66,0.00,,,0.00,0,Wunderground v.1.15,2013-08-06 03:30:00,
2013-08-05 22:40:00,86.0,73.8,29.80,SSE,154,3.0,6.0,67,0.00,,,0.00,0,Wunderground v.1.15,2013-08-06 03:40:00,
2013-08-05 22:45:00,85.8,74.0,29.81,SSE,148,4.0,6.0,68,0.00,,,0.00,0,Wunderground v.1.15,2013-08-06 03:45:00,
2013-08-05 22:50:00,85.6,73.8,29.81,SSE,153,6.0,7.0,68,0.00,,,0.00,0,Wunderground v.1.15,2013-08-06 03:50:00,
2013-08-05 22:55:00,85.4,73.6,29.81,ESE,122,4.0,7.0,68,0.00,,,0.00,0,Wunderground v.1.15,2013-08-06 03:55:00,
2013-08-05 23:00:00,85.2,73.4,29.81,ESE,122,4.0,4.0,68,0.00,,,0.00,0,Wunderground v.1.15,2013-08-06 04:00:00,
2013-08-05 23:05:00,85.0,73.7,29.81,SSE,148,6.0,6.0,69,0.00,,,0.00,0,Wunderground v.1.15,2013-08-06 04:05:00,
2013-08-05 23:10:00,84.8,73.1,29.81,SE,140,6.0,10.0,68,0.00,,,0.00,0,Wunderground v.1.15,2013-08-06 04:10:00,
2013-08-05 23:15:00,84.7,73.0,29.81,SE,145,6.0,10.0,68,0.00,,,0.00,0,Wunderground v.1.15,2013-08-06 04:15:00,
2013-08-05 23:20:00,84.6,72.9,29.81,SSE,151,6.0,7.0,68,0.00,,,0.00,0,Wunderground v.1.15,2013-08-06 04:20:00,
2013-08-05 23:30:00,84.3,72.6,29.81,SSE,161,6.0,6.0,68,0.00,,,0.00,0,Wunderground v.1.15,2013-08-06 04:30:00,
2013-08-05 23:35:00,84.2,72.5,29.81,SE,130,5.0,6.0,68,0.00,,,0.00,0,Wunderground v.1.15,2013-08-06 04:35:00,
2013-08-05 23:40:00,84.1,72.4,29.81,SE,136,2.0,4.0,68,0.00,,,0.00,0,Wunderground v.1.15,2013-08-06 04:40:00,
2013-08-05 23:50:00,83.8,72.1,29.82,ESE,116,4.0,6.0,68,0.00,,,0.00,0,Wunderground v.1.15,2013-08-06 04:50:00,
2013-08-05 23:55:00,83.6,71.9,29.82,SE,132,3.0,6.0,68,0.00,,,0.00,0,Wunderground v.1.15,2013-08-06 04:55:00,